Temperature
17 17 17 17 17 17 17 17 17 17 17 17 17 17 17 17 17 17 17 17 17 17 17 17 17 17 17 17 17 17 17 17 17 16 16 16 16 16 16 16 16 16 16
17 17 17 17 17 17 17 17 16 16 16 16 16 16 16 16 16 16 17 17 17 17 17 17 17 17 17 17 17 17 17 17 17 16 16 16 16 16 16 16 16 16 16
16 16 16 16 16 16 16 16 16 16 16 16 16 16 16 16 16 16 16 16 16 17 17 17 17 17 17 17 17 17 17 17 17 17 16 16 16 16 16 16 16 16 16
16 16 16 16 16 16 16 16 16 16 16 16 16 16 16 16 16 16 16 16 16 17 17 17 17 17 17 17 17 17 17 17 17 17 16 16 16 16 16 16 16 16 16
16 16 16 16 16 16 16 16 15 16 16 16 16 16 16 16 16 16 16 16 16 16 16 16 17 17 17 17 17 16 16 17 17 16 16 16 16 16 16 16 16 16 16
16 16 15 15 15 15 15 15 15 15 15 15 16 16 16 16 16 16 16 16 16 16 16 16 16 16 16 16 16 16 16 16 16 16 16 16 16 16 16 16 16 16 16
15 15 15 15 15 15 15 15 15 15 15 15 15 16 16 16 16 15 15 16 16 16 16 16 16 16 16 16 16 16 16 16 16 16 16 16 16 16 16 16 16 16 16
15 15 15 15 15 15 14 14 14 15 15 15 15 16 17 17 15 16 15 15 15 15 15 15 16 16 16 16 16 16 16 16 16 16 16 16 16 16 16 16 16 16 16
15 15 15 14 14 14 14 14 14 14 15 14 14 15 17 18 17 16 15 15 15 15 15 15 15 15 15 16 16 16 16 16 16 16 16 16 16 16 16 16 16 16 16
15 14 14 14 14 14 14 14 14 14 14 15 14 14 14 14 15 16 16 15 15 15 15 15 15 15 15 15 15 16 16 16 16 16 16 16 16 16 16 16 16 16 16
14 14 14 14 14 14 14 13 13 13 13 14 14 14 14 14 14 15 16 15 15 15 15 14 14 15 15 15 15 15 15 16 16 16 16 16 16 16 15 16 16 16 16
14 14 14 14 14 13 13 13 13 13 13 13 13 13 14 14 14 15 15 15 15 15 14 14 14 14 14 14 14 15 15 15 15 15 15 15 15 15 15 15 15 16 16
14 14 13 13 13 13 13 13 12 12 12 12 12 13 13 13 13 13 14 14 14 14 14 14 14 14 14 14 14 14 14 15 15 15 15 15 15 15 15 15 15 15 15
14 14 13 13 13 13 13 13 12 12 12 12 12 12 12 12 12 12 13 13 14 14 14 14 13 13 13 13 13 13 13 14 14 14 15 15 15 15 15 15 15 15 15
14 13 13 13 13 13 13 13 12 12 12 12 12 12 12 12 12 12 12 12 13 14 14 14 13 13 12 12 12 13 13 13 14 14 14 14 15 15 15 15 15 15 15
14 13 13 13 13 12 12 12 12 12 11 11 11 11 11 12 12 12 12 12 12 12 13 13 13 13 12 12 12 12 12 13 13 13 13 14 14 14 14 14 15 15 15
13 13 13 13 13 12 12 12 12 12 11 11 11 11 11 11 11 11 11 11 11 12 12 12 12 12 11 11 11 12 12 12 12 13 13 13 13 14 14 14 14 14 14
13 13 13 13 13 12 12 12 12 12 12 11 11 11 11 11 11 11 11 11 11 11 11 11 12 12 11 11 11 11 11 12 12 12 12 13 13 13 13 14 14 14 14
13 13 13 13 13 12 12 12 12 12 12 12 11 11 11 11 11 11 11 11 11 11 11 11 11 11 11 11 11 11 11 11 12 12 12 12 13 13 13 13 13 14 14
14 13 13 13 13 13 12 12 12 12 12 12 11 11 11 11 11 11 11 11 11 11 11 11 11 11 11 11 11 11 11 11 11 12 12 12 12 12 12 13 13 13 13
14 14 13 13 13 13 13 13 12 12 12 12 11 11 11 11 11 11 11 11 11 10 11 11 11 11 11 11 11 11 11 11 11 11 11 12 12 12 12 12 12 13 13
14 14 14 13 13 13 13 13 13 12 12 12 12 12 11 11 11 11 11 11 11 10 10 10 11 11 10 11 10 10 10 11 11 11 11 11 11 11 12 12 12 12 12
14 14 14 14 14 14 14 14 13 13 12 12 12 12 12 12 11 11 11 11 11 11 10 10 10 10 10 10 10 10 10 10 10 10 10 11 11 11 11 12 12 12 12
15 14 14 14 14 14 14 14 13 13 13 12 12 12 12 12 11 11 11 10 10 10 10 10 10 10 10 9 9 9 9 9 9 10 10 10 11 11 11 11 11 11 11
15 15 14 14 14 14 14 14 13 13 12 12 12 12 12 12 11 11 11 11 10 10 10 10 10 10 10 10 9 9 9 9 10 10 10 10 10 11 11 11 11 11 11
15 15 14 14 14 14 14 14 13 13 12 12 12 12 12 12 12 12 11 11 10 10 10 10 10 10 10 10 10 9 9 9 9 10 10 10 10 10 11 11 11 11 11
Wind_Speed
2 2 1 1 2 2 2 2 2 1 2 3 4 3 4 5 5 5 3 7 7 8 9 11 13 14 14 14 14 14 14 13 13 13 13 13 13 13 12 12 11 11 11
3 2 2 1 1 1 0 1 1 1 2 2 3 3 4 5 5 6 6 6 9 9 10 10 12 14 16 16 16 16 15 15 15 15 14 14 14 14 14 13 12 12 12
3 2 2 2 1 1 1 1 0 1 2 2 3 3 4 4 5 5 6 6 7 11 11 11 12 14 16 17 17 17 17 17 17 17 16 16 16 15 15 15 14 14 13
3 3 2 2 1 1 1 1 0 1 1 2 2 3 3 3 5 5 6 7 7 7 10 12 13 14 15 17 17 18 19 19 19 19 19 18 18 17 17 16 16 15 15
4 3 3 2 2 1 0 0 1 1 2 3 3 3 4 4 4 6 6 7 6 7 7 10 13 13 14 16 17 19 20 20 21 20 20 20 20 20 19 19 18 17 17
5 4 4 2 2 1 1 1 1 1 2 3 5 4 4 4 4 4 6 6 6 7 8 8 9 12 15 16 18 19 20 21 22 22 22 22 22 22 22 21 20 19 19
5 3 3 3 1 1 1 1 1 1 1 2 4 4 4 4 3 3 4 4 4 5 6 6 8 8 10 15 17 19 20 20 22 23 23 24 24 24 24 23 23 22 21
4 4 2 2 1 1 1 1 1 2 1 2 4 5 3 3 3 1 2 2 3 3 4 5 5 7 9 9 11 16 18 19 20 22 24 25 25 25 26 25 25 24 24
4 3 3 1 1 1 1 1 1 2 2 1 2 4 4 3 2 2 1 1 2 3 4 4 5 5 7 9 10 12 15 18 20 20 22 24 25 27 27 27 27 26 26
4 3 3 2 1 0 1 1 1 1 3 3 1 1 3 5 5 3 3 2 1 3 3 4 4 4 6 7 8 8 9 12 16 18 20 21 23 25 26 27 27 27 28
4 3 3 2 1 0 1 1 1 2 2 4 3 3 3 3 5 6 5 4 4 3 3 4 4 5 4 4 6 4 5 8 11 13 15 17 20 23 25 26 27 27 27
4 4 3 2 1 1 1 0 1 1 2 3 4 4 4 4 5 5 7 7 6 5 4 4 5 4 4 4 3 4 3 5 7 10 11 13 15 19 23 25 25 25 26
4 4 3 2 1 1 1 0 1 2 2 2 3 4 4 4 5 5 7 7 7 6 5 5 3 3 4 4 2 5 2 2 4 7 9 11 13 15 18 21 23 25 26
4 5 4 3 2 2 1 1 2 2 1 3 3 4 4 4 4 5 6 7 8 7 5 5 4 4 4 5 4 6 5 2 4 6 7 9 10 12 14 17 21 23 25
5 5 4 3 3 2 2 2 2 2 2 3 3 3 5 4 4 5 5 6 7 9 8 5 5 3 5 6 5 8 9 5 6 8 9 9 10 11 13 14 17 20 23
4 5 4 4 4 3 3 3 3 2 3 3 3 4 5 5 4 5 6 6 7 8 9 7 6 7 7 10 8 10 11 9 12 11 10 10 11 12 13 14 16 18 20
6 6 5 5 5 5 4 4 4 4 5 5 5 5 6 6 6 6 6 6 7 8 10 10 9 8 8 10 10 11 12 12 12 13 12 12 12 13 14 15 16 17 18
7 7 6 6 6 6 6 6 6 6 6 6 6 6 7 6 7 8 7 8 8 8 10 12 11 10 10 10 10 11 12 13 13 11 12 14 15 15 16 16 16 18 18
8 7 7 7 7 7 7 7 7 7 7 7 7 7 8 7 8 7 8 8 8 8 9 11 12 9 10 9 10 11 12 10 13 13 13 17 18 18 17 17 18 18 19
9 9 8 8 8 8 8 8 8 8 8 8 8 8 9 9 9 9 8 9 9 10 10 11 11 10 10 9 9 10 10 9 10 11 11 12 14 17 18 19 19 20 20
10 9 9 9 9 8 8 8 7 8 8 8 9 9 10 9 8 9 9 9 9 10 10 10 11 11 10 9 9 9 10 10 11 10 11 11 11 12 14 19 22 21 21
10 10 10 10 10 9 5 5 8 8 8 9 10 10 10 10 12 14 14 14 13 12 12 12 12 12 12 11 10 10 11 12 12 9 9 11 10 11 11 14 14 17 19
11 11 11 11 11 9 8 9 10 10 11 10 10 10 10 9 9 11 13 16 17 18 17 15 15 15 14 12 12 13 12 13 13 11 11 13 12 12 12 14 12 13 16
10 11 11 11 11 10 11 12 11 11 12 12 12 12 12 12 11 11 12 13 13 14 14 15 15 16 15 13 12 13 14 15 15 13 13 14 14 13 13 13 13 16 18
10 11 11 11 11 10 11 12 11 10 11 13 13 13 13 14 11 10 13 14 15 14 14 18 18 17 16 15 13 12 14 14 15 13 12 13 13 13 13 13 13 17 19
10 10 10 10 11 11 10 12 12 10 11 12 12 13 14 16 13 11 13 14 16 15 14 13 13 16 18 18 18 16 15 14 15 14 12 11 13 13 13 12 12 11 13
Wind_Direction
197 186 194 211 220 208 200 203 224 232 252 253 259 255 259 256 265 256 195 171 203 215 217 216 212 209 205 203 202 201 200 198 196 194 192 188 186 185 184 183 180 177 175
176 177 182 191 211 223 245 230 202 231 255 270 267 264 266 264 255 254 251 200 202 217 221 222 219 216 212 208 208 208 206 205 202 200 198 197 194 193 192 192 190 187 185
151 174 164 163 129 132 166 198 275 263 252 257 263 265 263 273 276 264 260 255 225 209 215 224 225 221 219 214 213 214 212 210 207 205 204 203 201 199 199 198 197 195 194
147 162 145 122 124 167 157 148 236 279 299 289 282 280 272 260 267 269 262 252 256 245 213 214 225 225 223 220 218 218 218 216 213 210 209 208 207 206 204 203 202 201 200
139 144 118 108 161 148 147 241 104 286 281 299 282 266 278 269 267 264 269 263 256 261 251 213 217 224 227 227 225 224 223 220 217 215 215 214 213 211 209 208 207 205 205
136 135 135 134 166 147 135 87 114 329 304 304 292 285 269 272 266 263 265 258 253 253 249 248 228 221 220 227 229 228 229 226 221 220 219 218 217 215 213 212 211 210 210
137 140 132 136 182 139 134 175 235 208 306 321 286 272 251 244 262 264 264 268 254 258 258 251 246 241 225 221 227 230 231 231 227 225 224 222 220 218 217 215 215 214 214
150 149 126 157 147 136 148 151 266 300 335 338 313 296 275 219 206 231 253 247 281 274 265 254 250 242 249 242 228 229 233 233 233 230 228 226 224 222 220 218 217 217 217
150 125 137 118 132 192 140 164 253 292 313 318 336 315 303 310 319 201 206 278 305 301 287 289 262 254 248 246 245 230 233 237 236 235 233 230 228 226 224 222 221 219 219
150 148 144 132 156 135 120 216 69 305 293 295 265 304 319 331 302 288 237 220 265 285 302 302 299 278 263 253 245 249 242 246 243 240 236 232 230 229 228 227 227 224 222
156 157 154 147 160 187 78 26 52 307 294 303 307 299 292 270 268 286 292 297 283 281 300 299 302 301 302 279 266 256 242 255 251 244 238 235 234 233 232 233 234 232 228
161 153 155 152 176 123 126 172 282 247 314 324 309 302 295 295 295 292 289 286 292 296 301 301 288 294 300 297 306 17 305 271 262 250 243 239 237 236 234 232 233 234 234
167 152 154 152 141 125 153 217 235 305 288 290 286 296 300 297 300 298 295 298 299 291 282 269 271 288 294 299 318 3 298 293 290 270 257 250 244 242 240 237 235 234 234
156 146 158 159 157 171 191 212 248 238 259 271 279 296 290 288 296 292 295 300 297 292 278 280 291 278 299 299 343 318 287 286 305 292 278 265 254 249 247 244 238 235 234
158 160 170 175 182 191 209 234 248 258 254 261 261 248 269 282 276 283 286 289 294 298 297 288 282 297 296 299 311 298 293 292 293 284 278 271 265 255 250 246 242 237 233
164 173 185 190 196 201 209 232 230 218 249 253 269 284 280 278 281 275 276 278 279 286 291 297 296 294 308 302 290 290 285 279 264 257 261 264 265 263 256 250 244 239 236
182 192 197 203 206 210 212 223 243 231 244 251 253 253 258 277 278 279 272 273 274 277 282 289 291 291 288 286 293 291 283 276 268 234 239 253 261 260 258 255 248 242 239
195 199 202 208 214 214 217 227 237 238 244 250 254 258 261 258 258 268 274 273 274 277 278 286 291 290 285 283 281 282 281 275 276 252 235 247 254 257 257 254 251 245 241
200 203 208 215 219 220 223 229 239 244 248 251 254 257 260 263 263 267 269 273 275 273 273 280 284 288 285 282 283 279 278 274 274 265 241 239 244 249 251 252 250 247 243
204 207 212 218 223 226 228 231 236 242 248 252 254 256 260 260 261 266 266 265 270 276 274 274 279 282 280 279 276 279 281 273 271 275 271 263 250 242 245 247 246 244 244
209 211 217 221 225 228 230 232 239 244 249 255 256 255 256 256 269 268 273 277 276 274 277 277 280 283 284 288 285 288 287 287 278 273 273 267 258 252 244 237 236 238 239
213 216 222 227 230 233 186 209 249 260 258 258 261 262 260 243 238 233 244 256 265 269 274 280 281 282 284 285 286 286 288 286 284 280 276 273 269 265 260 256 240 225 228
214 219 225 231 236 232 196 210 228 253 260 262 264 265 268 266 245 254 238 229 241 242 247 261 274 278 282 284 286 283 281 282 283 286 287 279 274 268 265 261 237 229 233
218 222 227 232 238 232 204 215 222 243 257 260 260 260 262 268 263 259 265 264 263 256 244 243 255 264 271 277 277 275 279 277 273 267 263 268 271 270 270 267 241 227 234
220 225 230 234 238 237 210 214 225 253 254 257 259 259 259 262 253 235 255 264 268 269 256 239 244 255 265 270 269 272 272 271 272 271 259 259 267 271 270 266 255 225 227
224 231 234 236 240 246 221 209 216 253 260 263 260 258 247 244 252 226 248 259 265 269 273 269 246 245 251 251 240 245 258 266 271 273 269 261 265 269 272 267 260 247 235
Height
1566 1567 1568 1569 1571 1571 1572 1572 1573 1573 1574 1575 1576 1577 1577 1578 1579 1580 1581 1580 1580 1581 1582 1583 1584 1585 1586 1588 1589 1590 1591 1592 1594 1595 1596 1598 1599 1600 1601 1603 1604 1605 1606
1565 1566 1567 1568 1569 1570 1570 1571 1572 1572 1573 1574 1574 1575 1575 1577 1577 1578 1579 1579 1579 1580 1581 1581 1583 1584 1585 1586 1587 1589 1590 1591 1593 1594 1596 1597 1598 1599 1601 1602 1603 1605 1606
1563 1565 1566 1567 1568 1569 1569 1570 1570 1571 1572 1572 1573 1573 1574 1574 1575 1575 1576 1577 1577 1577 1578 1579 1581 1582 1583 1584 1585 1586 1588 1589 1591 1593 1594 1595 1597 1598 1600 1601 1602 1604 1605
1563 1564 1565 1566 1566 1568 1568 1569 1569 1570 1570 1571 1571 1571 1572 1572 1572 1572 1573 1574 1575 1576 1576 1576 1578 1579 1580 1582 1583 1584 1585 1587 1589 1590 1592 1594 1595 1597 1598 1600 1601 1603 1604
1562 1564 1564 1565 1565 1567 1567 1568 1568 1569 1569 1569 1570 1569 1570 1570 1570 1570 1570 1571 1572 1572 1573 1574 1574 1576 1577 1578 1580 1581 1582 1584 1586 1587 1589 1591 1593 1594 1596 1598 1599 1601 1602
1561 1563 1563 1563 1565 1565 1566 1566 1567 1567 1568 1568 1568 1568 1567 1568 1568 1568 1568 1569 1569 1569 1570 1571 1571 1572 1573 1574 1576 1578 1579 1581 1582 1584 1586 1588 1590 1592 1593 1595 1597 1598 1600
1561 1562 1563 1563 1563 1564 1564 1565 1566 1567 1567 1566 1567 1567 1566 1565 1565 1565 1565 1566 1566 1567 1567 1567 1568 1569 1570 1571 1572 1573 1575 1576 1578 1579 1582 1584 1586 1588 1590 1592 1594 1595 1597
1561 1562 1562 1563 1562 1562 1563 1564 1564 1566 1566 1566 1566 1566 1565 1565 1564 1564 1563 1564 1564 1564 1564 1564 1564 1565 1566 1567 1568 1569 1570 1572 1573 1574 1577 1579 1581 1583 1586 1588 1590 1592 1594
1560 1561 1561 1562 1561 1563 1563 1563 1563 1564 1565 1565 1565 1566 1565 1562 1563 1563 1562 1562 1562 1562 1562 1562 1562 1562 1562 1563 1563 1564 1565 1567 1568 1570 1571 1573 1576 1578 1581 1583 1585 1587 1589
1559 1560 1560 1561 1561 1562 1562 1563 1563 1563 1563 1565 1564 1564 1564 1564 1563 1562 1562 1561 1560 1560 1560 1560 1559 1559 1559 1559 1559 1560 1561 1561 1563 1564 1566 1568 1570 1572 1575 1577 1580 1582 1584
1558 1559 1559 1560 1560 1561 1561 1561 1561 1561 1563 1563 1564 1564 1563 1563 1562 1562 1560 1560 1560 1559 1558 1557 1557 1557 1556 1556 1556 1556 1556 1557 1558 1559 1560 1562 1564 1566 1568 1571 1573 1576 1578
1558 1558 1558 1559 1559 1560 1559 1559 1560 1560 1560 1560 1561 1562 1562 1562 1561 1560 1559 1559 1558 1557 1556 1555 1555 1554 1554 1554 1553 1552 1552 1552 1553 1554 1555 1557 1558 1560 1562 1564 1567 1569 1572
1557 1556 1557 1557 1558 1558 1558 1558 1558 1559 1559 1558 1559 1559 1559 1559 1559 1559 1558 1557 1556 1555 1554 1553 1553 1552 1552 1551 1550 1549 1549 1549 1549 1549 1550 1552 1553 1555 1556 1558 1560 1562 1564
1556 1555 1555 1556 1556 1556 1557 1557 1558 1557 1557 1557 1557 1556 1557 1557 1557 1557 1557 1556 1554 1553 1552 1551 1551 1550 1549 1548 1547 1546 1546 1545 1545 1545 1546 1547 1548 1549 1550 1552 1553 1555 1557
1553 1553 1554 1554 1555 1555 1555 1555 1556 1555 1555 1555 1556 1555 1555 1555 1555 1555 1554 1554 1554 1551 1549 1549 1548 1547 1546 1545 1543 1542 1542 1541 1541 1541 1541 1542 1542 1543 1544 1545 1547 1548 1550
1551 1551 1552 1553 1553 1553 1553 1553 1554 1554 1553 1553 1553 1552 1552 1553 1553 1552 1552 1551 1550 1550 1548 1546 1545 1545 1542 1541 1540 1538 1538 1537 1536 1537 1537 1537 1537 1538 1538 1539 1540 1542 1543
1549 1549 1550 1551 1551 1552 1552 1552 1553 1552 1552 1552 1551 1551 1550 1550 1550 1550 1549 1548 1548 1547 1545 1543 1542 1541 1538 1536 1535 1534 1533 1532 1533 1532 1531 1532 1532 1532 1533 1533 1534 1535 1536
1547 1548 1548 1549 1550 1550 1550 1550 1550 1551 1550 1550 1549 1549 1548 1548 1547 1546 1546 1545 1544 1543 1542 1539 1538 1537 1535 1533 1531 1529 1529 1529 1528 1527 1525 1525 1526 1526 1527 1527 1528 1528 1529
1545 1546 1546 1547 1548 1548 1548 1548 1548 1548 1548 1547 1547 1546 1545 1545 1544 1543 1542 1542 1541 1540 1538 1536 1534 1532 1530 1529 1527 1525 1524 1522 1522 1522 1520 1519 1519 1519 1520 1520 1521 1521 1522
1542 1543 1544 1545 1545 1545 1545 1545 1545 1545 1544 1544 1543 1542 1542 1541 1540 1539 1538 1537 1536 1535 1534 1532 1530 1528 1527 1525 1523 1521 1520 1519 1517 1517 1515 1514 1513 1512 1512 1513 1514 1514 1515
1540 1541 1541 1542 1542 1542 1543 1543 1542 1542 1541 1540 1540 1538 1538 1537 1535 1535 1534 1534 1533 1531 1530 1528 1526 1524 1523 1521 1520 1518 1516 1514 1512 1511 1510 1509 1508 1507 1507 1506 1506 1507 1508
1537 1537 1538 1539 1539 1540 1539 1538 1538 1538 1537 1536 1535 1534 1533 1532 1530 1529 1528 1528 1527 1526 1525 1524 1522 1520 1518 1517 1515 1513 1512 1510 1507 1507 1505 1504 1503 1501 1501 1501 1500 1500 1500
1533 1534 1534 1535 1535 1535 1535 1534 1534 1533 1533 1532 1531 1530 1529 1529 1526 1525 1524 1522 1521 1519 1519 1517 1516 1514 1513 1512 1510 1508 1506 1504 1502 1501 1500 1497 1497 1495 1495 1494 1493 1493 1493
1529 1530 1530 1530 1530 1530 1530 1530 1529 1528 1528 1527 1526 1525 1524 1523 1522 1520 1519 1518 1516 1514 1513 1511 1509 1507 1507 1505 1504 1502 1500 1497 1495 1494 1493 1491 1490 1489 1488 1488 1486 1485 1485
1524 1525 1525 1526 1525 1525 1525 1525 1524 1523 1522 1521 1521 1519 1518 1517 1516 1514 1513 1511 1510 1508 1507 1504 1502 1501 1499 1498 1497 1495 1494 1492 1489 1488 1488 1486 1484 1483 1481 1480 1479 1478 1477
1520 1520 1521 1521 1520 1520 1520 1519 1519 1518 1517 1516 1515 1513 1512 1510 1510 1508 1506 1505 1503 1502 1501 1499 1496 1493 1491 1490 1489 1487 1486 1485 1483 1481 1481 1480 1478 1477 1475 1474 1473 1472 1470